Location: Nora Junction
(43.1400°N, 93.0163°W)
Time: 23:14:48
(UTC+00:00)

BREEZE-M DEB (TANK) - Pass Details

Date: 18 November 2025
Orbit: 274 x 13337 km, 49.4° (Epoch: 14 December)

Event Time Altitude Azimuth Distance (km) Brightness Sun altitude
Rises 23:10:24 0° 229° (SW) 1,901 7.3 -5.0°
Reaches altitude 10° 23:11:50 10° 224° (SW) 1,173 5.8 -5.3°
Maximum altitude 23:13:57 57° 144° (SE) 479 2.5 -5.6°
Drops below altitude 10° 23:18:16 10° 65° (ENE) 2,362 5.3 -6.4°
Enters shadow 23:19:09 - 64° (ENE) 2,803 5.7 -6.5°
